Aérodrome :
LOGIN :

S'inscrire | Disclaimer

   EN    FR    IT 

 










Légende :    VFR   VFR Marginal   IFR   IFR Intensif   IFR Très Intensif
Visi : 
Plafond : 
>= 8 km
>= 3000ft
5 à 8 km
1000 à 3000 ft
1500m à 5 km
500 à 1000 ft
800 à 1500m
200 à 500 ft
< 800m
< 200 ft
Symboles :   Orages  Brouillard  Fortes neiges  Fortes précipitations  Vent > 20 kt
SIGMETs :   Divers  Orages  Givrage  Turbulence  Onde Orograph.  Cendres Volcan.







- Altitude de l'aérodrome : 26 ft
- Code IATA : BIA
- Voir les cartes d'approche


LFKB - Bastia

DERNIER METAR :
  • 162130Z AUTO VRB02KT CAVOK 06/05 Q1030 NOSIG

METARs EXPIRÉS :
  • 162100Z AUTO 22004KT CAVOK 06/04 Q1030 NOSIG
  • 162030Z AUTO VRB02KT CAVOK 06/03 Q1030 NOSIG
  • 162000Z AUTO 23002KT CAVOK 07/04 Q1030 NOSIG
  • 161930Z AUTO 21002KT CAVOK 07/04 Q1029 NOSIG
  • 161900Z AUTO 23003KT CAVOK 07/04 Q1029 NOSIG

TAF TAF LFKB
Valide du 16 à 21h jusqu'au 17 à 21h UTC


162000Z 1621/1721 24005KT CAVOK TX16/1713Z TN04/1704Z
BECMG 1708/1711 12006KT
TEMPO 1715/1721 BKN015
ATIS : +33 4 95 59 19 40
Pas de NOTAMs connus pour ce terrain.



MET'MAP, la Météo Aéronautique d'un coup d'oeil ! - Copyright ORBIFLY Décembre 2007 - Disclaimer

ORBIFLY MET'MAP TEAM :

Programmation & Développement : Alexandra Zaïnal
Conception & Développement : Baudouin d'Aumeries
Co-Programmation & Développement : Marc-Olivier Méhu
Soutien technique & logistique : Manuel Goepfert

Contact : metmap@orbifly.com




SOURCES & CREDITS :

   NOAA